M I D A S
Marine Information and Data Acquisition System
Tripno 866 of the Zeeleeuw from 2005-03-18 07:07:38 to 2005-03-18 15:38:58
Back to CruiseResearch ActivitiesStationsMapUnderway DataData graphs

EquipmentUnitsComments
TimeDGPSUTC
LatitudeDGPSDM.mWGS84
LongitudeDGPSDM.mWGS84
SpeedMeteo Stationm/sRelative wind speed
DirectionMeteo StationdegRelative wind direction
TemperatureMeteo Stationdeg CelciusAir temperature
PressureMeteo StationPaAtmospheric pressure
HumidityMeteo Station%Relative humidity
Missing or incorrect values are displayed as -999
Metereological data collected by the RV Zeeleeuw from 2005-03-18 07:08:53 to 2005-03-18 15:40:54
Time Latitude Longitude Speed Direction Temperature Pressure Humidity
2005-03-18 07:09 51°13.606 2°56.06 5.1 130 7.7 102830 99
2005-03-18 07:10 51°13.574 2°56.122 2.5 116 7.7 102830 98
2005-03-18 07:11 51°13.542 2°56.205 1.7 255 7.7 102830 98
2005-03-18 07:12 51°13.539 2°56.217 3.8 204 7.7 102820 99
2005-03-18 07:13 51°13.539 2°56.222 3.9 232 7.8 102820 99
2005-03-18 07:14 51°13.542 2°56.226 5.7 230 7.7 102820 99
2005-03-18 07:15 51°13.546 2°56.219 3.4 339 7.7 102830 98
2005-03-18 07:16 51°13.534 2°56.236 4.8 328 7.7 102830 98
2005-03-18 07:17 51°13.566 2°56.127 6.4 346 7.8 102820 98
2005-03-18 07:18 51°13.625 2°55.976 9.8 315 7.7 102830 98
2005-03-18 07:19 51°13.704 2°55.796 8.1 350 7.7 102810 98
2005-03-18 07:20 51°13.832 2°55.632 7 336 7.7 102810 98
2005-03-18 07:21 51°13.992 2°55.515 7.9 331 7.7 102800 98
2005-03-18 07:22 51°14.152 2°55.399 7.7 339 7.6 102800 98
2005-03-18 07:23 51°14.292 2°55.219 12.3 327 7.5 102800 98
2005-03-18 07:24 51°14.409 2°54.983 13.4 328 7.3 102790 98
2005-03-18 07:25 51°14.573 2°54.754 13.9 329 7.2 102780 98
2005-03-18 07:26 51°14.736 2°54.514 14.2 338 7.1 102790 98
2005-03-18 07:27 51°14.87 2°54.243 14.8 343 7 102780 98
2005-03-18 07:28 51°14.972 2°53.94 14.8 340 6.9 102780 98
2005-03-18 07:29 51°15.061 2°53.627 15.9 342 6.9 102760 98
2005-03-18 07:30 51°15.148 2°53.307 16.9 341 6.9 102770 98
2005-03-18 07:31 51°15.238 2°52.989 15.9 344 6.9 102760 99
2005-03-18 07:32 51°15.305 2°52.66 16.3 350 6.8 102760 99
2005-03-18 07:33 51°15.359 2°52.326 15.5 348 6.8 102770 99
2005-03-18 07:34 51°15.416 2°51.995 17 348 6.8 102780 99
2005-03-18 07:35 51°15.478 2°51.664 16.2 348 6.8 102780 99
2005-03-18 07:36 51°15.538 2°51.335 15.9 348 6.7 102780 99
2005-03-18 07:37 51°15.588 2°51.007 16.8 352 6.7 102770 99
2005-03-18 07:38 51°15.63 2°50.664 17.5 350 6.7 102790 99
2005-03-18 07:39 51°15.671 2°50.333 16.1 356 6.7 102790 99
2005-03-18 07:40 51°15.713 2°49.994 17.2 352 6.7 102790 99
2005-03-18 07:41 51°15.744 2°49.652 17.1 358 6.7 102790 99
2005-03-18 07:42 51°15.765 2°49.318 16.5 356 6.7 102780 99
2005-03-18 07:43 51°15.786 2°48.972 16.5 351 6.7 102780 99
2005-03-18 07:44 51°15.807 2°48.628 16 349 6.6 102800 99
2005-03-18 07:45 51°15.83 2°48.281 17.4 350 6.6 102780 100
2005-03-18 07:46 51°15.853 2°47.939 17.4 350 6.6 102770 100
2005-03-18 07:47 51°15.876 2°47.598 16 352 6.6 102790 100
2005-03-18 07:48 51°15.898 2°47.259 16.3 352 6.6 102770 100
2005-03-18 07:49 51°15.909 2°46.922 15.3 354 6.6 102770 100
2005-03-18 07:50 51°15.92 2°46.581 16 355 6.5 102770 100
2005-03-18 07:51 51°15.934 2°46.241 15.1 345 6.5 102790 100
2005-03-18 07:52 51°16.037 2°45.941 14.8 335 6.5 102780 100
2005-03-18 07:53 51°16.161 2°45.656 14.6 336 6.5 102760 100
2005-03-18 07:54 51°16.289 2°45.365 15.6 334 6.5 102770 100
2005-03-18 07:55 51°16.414 2°45.074 15.4 338 6.5 102770 100
2005-03-18 07:56 51°16.543 2°44.783 15.2 331 6.5 102760 100
2005-03-18 07:57 51°16.674 2°44.493 13.8 337 6.5 102770 100
2005-03-18 07:58 51°16.806 2°44.202 15.6 333 6.5 102770 100
2005-03-18 07:59 51°16.933 2°43.913 15.1 333 6.5 102770 100
2005-03-18 08:00 51°17.062 2°43.62 15.7 332 6.5 102760 100
2005-03-18 08:01 51°17.192 2°43.327 16.5 331 6.5 102770 100
2005-03-18 08:02 51°17.318 2°43.042 16.2 331 6.5 102750 100
2005-03-18 08:03 51°17.446 2°42.755 15.7 333 6.5 102740 100
2005-03-18 08:04 51°17.581 2°42.466 16.8 333 6.4 102780 100
2005-03-18 08:05 51°17.716 2°42.183 16.4 330 6.4 102760 100
2005-03-18 08:06 51°17.845 2°41.896 15.2 330 6.4 102750 100
2005-03-18 08:07 51°17.98 2°41.614 14.3 332 6.4 102750 100
2005-03-18 08:08 51°18.114 2°41.335 16.5 330 6.4 102770 100
2005-03-18 08:09 51°18.25 2°41.05 17.8 329 6.4 102770 100
2005-03-18 08:10 51°18.384 2°40.775 15 336 6.4 102780 100
2005-03-18 08:11 51°18.52 2°40.497 16.8 334 6.4 102790 100
2005-03-18 08:12 51°18.658 2°40.222 14.3 337 6.4 102780 100
2005-03-18 08:13 51°18.798 2°39.945 15.2 335 6.4 102790 100
2005-03-18 08:14 51°18.935 2°39.668 15.4 339 6.4 102760 100
2005-03-18 08:15 51°19.071 2°39.391 15.2 339 6.4 102780 100
2005-03-18 08:16 51°19.206 2°39.115 14.6 338 6.4 102800 100
2005-03-18 08:17 51°19.338 2°38.836 14.4 334 6.4 102790 100
2005-03-18 08:18 51°19.474 2°38.553 14.9 328 6.4 102770 100
2005-03-18 08:19 51°19.607 2°38.273 15.3 332 6.4 102780 100
2005-03-18 08:20 51°19.743 2°37.989 14.8 332 6.4 102760 100
2005-03-18 08:21 51°19.876 2°37.711 14.8 328 6.4 102770 100
2005-03-18 08:22 51°20.01 2°37.43 16.1 331 6.4 102760 100
2005-03-18 08:23 51°20.145 2°37.148 14.6 334 6.4 102770 100
2005-03-18 08:24 51°20.279 2°36.87 13.4 330 6.3 102760 100
2005-03-18 08:25 51°20.414 2°36.588 15.8 331 6.3 102770 100
2005-03-18 08:26 51°20.559 2°36.318 13.9 228 6.3 102740 100
2005-03-18 08:27 51°20.767 2°36.239 10 299 6.3 102780 100
2005-03-18 08:28 51°20.962 2°36.241 11.1 283 6.3 102800 100
2005-03-18 08:29 51°21.162 2°36.244 11.7 285 6.3 102780 100
2005-03-18 08:30 51°21.36 2°36.251 9.7 289 6.3 102790 100
2005-03-18 08:31 51°21.563 2°36.269 10.2 287 6.3 102780 100
2005-03-18 08:32 51°21.771 2°36.288 10 288 6.3 102790 100
2005-03-18 08:33 51°21.972 2°36.311 10.6 287 6.3 102790 100
2005-03-18 08:34 51°22.179 2°36.331 7.6 288 6.3 102800 100
2005-03-18 08:35 51°22.393 2°36.356 10.1 294 6.3 102790 100
2005-03-18 08:36 51°22.614 2°36.344 10.4 310 6.3 102790 100
2005-03-18 08:37 51°22.816 2°36.187 13.6 43 6.2 102780 100
2005-03-18 08:38 51°22.994 2°35.969 13.4 323 6.2 102770 100
2005-03-18 08:39 51°23.172 2°35.74 12.2 319 6.3 102750 100
2005-03-18 08:40 51°23.307 2°35.476 15.6 344 6.2 102740 100
2005-03-18 08:41 51°23.337 2°35.136 15.3 345 6.2 102750 100
2005-03-18 08:42 51°23.364 2°34.788 16.6 349 6.2 102740 100
2005-03-18 08:43 51°23.394 2°34.452 17.6 346 6.2 102760 100
2005-03-18 08:44 51°23.425 2°34.108 17.1 343 6.2 102750 100
2005-03-18 08:45 51°23.455 2°33.768 16.6 343 6.2 102760 100
2005-03-18 08:46 51°23.487 2°33.426 18.8 346 6.3 102750 100
2005-03-18 08:47 51°23.527 2°33.095 16.1 340 6.4 102750 100
2005-03-18 08:48 51°23.634 2°32.79 18.9 332 6.3 102750 100
2005-03-18 08:49 51°23.742 2°32.485 16.5 330 6.3 102750 100
2005-03-18 08:50 51°23.846 2°32.19 17 332 6.3 102750 100
2005-03-18 08:51 51°23.954 2°31.883 16.4 334 6.3 102720 100
2005-03-18 08:52 51°24.058 2°31.575 15.5 336 6.3 102740 100
2005-03-18 08:53 51°24.143 2°31.254 17.5 343 6.3 102750 100
2005-03-18 08:54 51°24.128 2°30.925 16.5 9 6.3 102770 100
2005-03-18 08:55 51°24.03 2°30.666 14.8 16 6.3 102790 100
2005-03-18 08:56 51°23.96 2°30.459 14.2 9 6.3 102800 100
2005-03-18 08:57 51°23.89 2°30.243 16.8 5 6.3 102790 100
2005-03-18 08:58 51°23.817 2°30.047 14.1 15 6.3 102790 100
2005-03-18 08:59 51°23.769 2°29.905 14.4 14 6.3 102790 100
2005-03-18 09:00 51°23.742 2°29.827 11.4 11 6.3 102800 100
2005-03-18 09:01 51°23.733 2°29.785 11 9 6.3 102810 100
2005-03-18 09:02 51°23.716 2°29.742 12 15 6.3 102810 100
2005-03-18 09:03 51°23.64 2°29.622 14.1 16 6.3 102790 100
2005-03-18 09:04 51°23.639 2°29.492 9.7 296 6.3 102780 100
2005-03-18 09:05 51°23.719 2°29.502 6.5 211 6.3 102820 100
2005-03-18 09:06 51°23.738 2°29.617 8.1 128 6.3 102820 100
2005-03-18 09:07 51°23.73 2°29.702 6.4 130 6.2 102820 100
2005-03-18 09:08 51°23.728 2°29.779 7.7 130 6.2 102820 100
2005-03-18 09:10 51°23.742 2°29.796 8.3 140 6.2 102820 100
2005-03-18 09:10 51°23.756 2°29.807 8 124 6.2 102830 100
2005-03-18 09:11 51°23.753 2°29.851 9.3 102 6.2 102810 100
2005-03-18 09:12 51°23.794 2°29.842 9.5 122 6.2 102810 100
2005-03-18 09:13 51°23.78 2°29.87 9.4 51 6.2 102800 100
2005-03-18 09:14 51°23.74 2°29.833 11.1 354 6.2 102800 100
2005-03-18 09:15 51°23.744 2°29.803 10.1 329 6.3 102780 100
2005-03-18 09:16 51°23.764 2°29.79 9.7 308 6.3 102770 100
2005-03-18 09:17 51°23.808 2°29.768 7.7 261 6.2 102780 100
2005-03-18 09:18 51°23.871 2°29.844 6.8 147 6.2 102800 100
2005-03-18 09:19 51°23.835 2°29.947 10.2 65 6.2 102790 100
2005-03-18 09:20 51°23.785 2°29.933 9.9 14 6.2 102780 100
2005-03-18 09:21 51°23.768 2°29.892 11 4 6.2 102790 100
2005-03-18 09:22 51°23.757 2°29.851 10.6 2 6.2 102800 100
2005-03-18 09:23 51°23.747 2°29.817 9.9 10 6.2 102810 100
2005-03-18 09:24 51°23.74 2°29.792 9.8 12 6.2 102810 100
2005-03-18 09:25 51°23.732 2°29.781 10.2 49 6.2 102800 100
2005-03-18 09:26 51°23.729 2°29.797 8.4 74 6.1 102790 100
2005-03-18 09:27 51°23.724 2°29.82 11.7 85 6.1 102790 100
2005-03-18 09:28 51°23.725 2°29.844 11 91 6.1 102810 100
2005-03-18 09:29 51°23.729 2°29.868 10.4 84 6.1 102800 100
2005-03-18 09:30 51°23.736 2°29.891 10.6 94 6.1 102810 100
2005-03-18 09:31 51°23.746 2°29.915 9.3 109 6.1 102800 100
2005-03-18 09:32 51°23.757 2°29.937 11.4 108 6.1 102800 100
2005-03-18 09:33 51°23.752 2°29.991 8.1 147 6.1 102800 100
2005-03-18 09:34 51°23.775 2°30.07 8.1 234 6.1 102840 100
2005-03-18 09:35 51°23.833 2°30.079 11.4 288 6.2 102810 100
2005-03-18 09:36 51°23.867 2°30.01 12.5 360 6.2 102800 100
2005-03-18 09:37 51°23.82 2°29.937 13.1 34 6.2 102790 100
2005-03-18 09:38 51°23.745 2°29.845 12.7 26 6.2 102790 100
2005-03-18 09:39 51°23.706 2°29.754 10.4 346 6.2 102790 100
2005-03-18 09:40 51°23.716 2°29.735 9.4 288 6.2 102810 100
2005-03-18 09:41 51°23.723 2°29.751 6.9 259 6.2 102820 100
2005-03-18 09:42 51°23.725 2°29.769 8.7 246 6.1 102820 100
2005-03-18 09:43 51°23.727 2°29.786 8.5 246 6.1 102840 100
2005-03-18 09:44 51°23.707 2°29.795 8.3 234 6.1 102840 100
2005-03-18 09:45 51°23.704 2°29.807 7.6 242 6.1 102840 100
2005-03-18 09:46 51°23.711 2°29.823 8.2 248 6.1 102840 100
2005-03-18 09:47 51°23.723 2°29.839 10 267 6.1 102840 100
2005-03-18 09:48 51°23.735 2°29.85 10.6 270 6.1 102840 100
2005-03-18 09:49 51°23.748 2°29.862 10.3 278 6.1 102830 100
2005-03-18 09:50 51°23.761 2°29.872 10.6 277 6.1 102830 100
2005-03-18 09:51 51°23.774 2°29.883 10.3 281 6.1 102830 100
2005-03-18 09:52 51°23.794 2°29.87 13.5 326 6.1 102820 100
2005-03-18 09:53 51°23.772 2°29.789 11.7 51 6.2 102800 100
2005-03-18 09:54 51°23.726 2°29.781 12.1 59 6.1 102810 100
2005-03-18 09:55 51°23.69 2°29.789 9.5 74 6.1 102820 100
2005-03-18 09:56 51°23.651 2°29.76 10.6 3 6.1 102810 100
2005-03-18 09:57 51°23.662 2°29.688 11 299 6.1 102810 100
2005-03-18 09:58 51°23.68 2°29.688 10.9 263 6.1 102810 100
2005-03-18 09:59 51°23.7 2°29.693 12.3 277 6.1 102820 100
2005-03-18 10:00 51°23.718 2°29.698 12.4 279 6.2 102820 100
2005-03-18 10:01 51°23.734 2°29.703 8.8 280 6.2 102830 100
2005-03-18 10:02 51°23.749 2°29.709 10.6 288 6.2 102820 100
2005-03-18 10:03 51°23.763 2°29.718 11.3 280 6.2 102820 100
2005-03-18 10:04 51°23.778 2°29.725 10.8 277 6.2 102820 100
2005-03-18 10:05 51°23.804 2°29.699 11.5 321 6.2 102820 100
2005-03-18 10:06 51°23.786 2°29.613 12.4 43 6.2 102810 100
2005-03-18 10:07 51°23.735 2°29.627 11.1 84 6.2 102790 100
2005-03-18 10:08 51°23.719 2°29.644 8.8 78 6.1 102810 100
2005-03-18 10:09 51°23.712 2°29.658 10 77 6.1 102810 100
2005-03-18 10:10 51°23.71 2°29.675 9.7 79 6.1 102810 100
2005-03-18 10:11 51°23.715 2°29.691 11.6 93 6.1 102810 100
2005-03-18 10:12 51°23.724 2°29.708 13.2 100 6.1 102810 100
2005-03-18 10:13 51°23.733 2°29.725 9.9 118 6.2 102810 100
2005-03-18 10:14 51°23.742 2°29.739 10.7 124 6.1 102810 100
2005-03-18 10:15 51°23.758 2°29.737 10 133 6.2 102810 100
2005-03-18 10:16 51°23.769 2°29.742 10.3 130 6.1 102810 100
2005-03-18 10:17 51°23.778 2°29.754 10.3 125 6.1 102810 100
2005-03-18 10:18 51°23.783 2°29.77 9.6 113 6.1 102810 100
2005-03-18 10:19 51°23.788 2°29.784 11.4 106 6.1 102820 100
2005-03-18 10:20 51°23.794 2°29.799 11.3 111 6.1 102810 100
2005-03-18 10:21 51°23.801 2°29.813 10.3 111 6.1 102810 100
2005-03-18 10:22 51°23.809 2°29.826 9.5 110 6.1 102810 100
2005-03-18 10:23 51°23.816 2°29.839 9.1 103 6.1 102820 100
2005-03-18 10:24 51°23.822 2°29.852 10.9 109 6.1 102810 100
2005-03-18 10:25 51°23.8 2°29.874 10.5 60 6.1 102800 100
2005-03-18 10:26 51°23.805 2°29.889 10.1 81 6.1 102790 100
2005-03-18 10:27 51°23.789 2°29.902 13 48 6.1 102810 100
2005-03-18 10:28 51°23.757 2°29.89 11.5 31 6.1 102790 100
2005-03-18 10:29 51°23.74 2°29.857 11.5 344 6.2 102790 100
2005-03-18 10:30 51°23.746 2°29.855 11.7 296 6.2 102800 100
2005-03-18 10:31 51°23.752 2°29.87 11 277 6.2 102810 100
2005-03-18 10:32 51°23.757 2°29.882 9.5 263 6.2 102800 100
2005-03-18 10:33 51°23.763 2°29.894 7.4 259 6.2 102800 100
2005-03-18 10:34 51°23.771 2°29.905 7.5 258 6.2 102800 100
2005-03-18 10:35 51°23.779 2°29.914 10.4 268 6.2 102800 100
2005-03-18 10:36 51°23.787 2°29.923 11.9 271 6.3 102790 100
2005-03-18 10:37 51°23.797 2°29.93 10.6 270 6.2 102790 100
2005-03-18 10:38 51°23.807 2°29.939 11.4 267 6.2 102790 100
2005-03-18 10:39 51°23.816 2°29.946 10.6 269 6.2 102780 100
2005-03-18 10:40 51°23.826 2°29.954 11.6 274 6.2 102790 100
2005-03-18 10:41 51°23.84 2°29.955 10.5 291 6.2 102790 100
2005-03-18 10:42 51°23.856 2°29.895 14.1 332 6.2 102780 100
2005-03-18 10:43 51°23.845 2°29.835 11.9 4 6.2 102790 100
2005-03-18 10:44 51°23.831 2°29.802 11.2 11 6.3 102780 100
2005-03-18 10:45 51°23.828 2°29.8 11 41 6.3 102790 100
2005-03-18 10:46 51°23.834 2°29.812 10.6 70 6.2 102780 100
2005-03-18 10:47 51°23.844 2°29.822 11.3 98 6.2 102780 100
2005-03-18 10:48 51°23.853 2°29.83 10.5 113 6.2 102780 100
2005-03-18 10:49 51°23.857 2°29.843 11.7 111 6.2 102800 100
2005-03-18 10:50 51°23.861 2°29.856 10.9 119 6.2 102800 100
2005-03-18 10:51 51°23.863 2°29.87 12.1 98 6.2 102790 100
2005-03-18 10:52 51°23.866 2°29.882 12 104 6.2 102790 100
2005-03-18 10:53 51°23.852 2°29.901 9.4 73 6.2 102800 100
2005-03-18 10:54 51°23.819 2°29.907 11.6 49 6.2 102780 100
2005-03-18 10:55 51°23.793 2°29.901 10.5 42 6.2 102790 100
2005-03-18 10:56 51°23.784 2°29.907 9.7 58 6.2 102790 100
2005-03-18 10:57 51°23.785 2°29.92 11.6 88 6.2 102790 100
2005-03-18 10:58 51°23.788 2°29.931 10.9 111 6.2 102810 100
2005-03-18 10:59 51°23.791 2°29.94 10 113 6.2 102820 100
2005-03-18 11:00 51°23.794 2°29.949 10.2 107 6.2 102820 100
2005-03-18 11:01 51°23.798 2°29.956 10.8 100 6.2 102810 100
2005-03-18 11:02 51°23.8 2°29.966 10.5 96 6.2 102820 100
2005-03-18 11:03 51°23.77 2°29.981 11.2 45 6.2 102800 100
2005-03-18 11:04 51°23.731 2°29.946 12.5 359 6.3 102800 100
2005-03-18 11:05 51°23.725 2°29.902 11.2 323 6.4 102790 100
2005-03-18 11:06 51°23.734 2°29.895 11.2 285 6.4 102800 100
2005-03-18 11:07 51°23.742 2°29.899 9.5 263 6.4 102810 100
2005-03-18 11:08 51°23.75 2°29.904 8.8 263 6.4 102810 100
2005-03-18 11:09 51°23.757 2°29.907 10.2 269 6.4 102820 100
2005-03-18 11:10 51°23.765 2°29.908 10.6 273 6.4 102830 100
2005-03-18 11:11 51°23.771 2°29.911 10.5 277 6.4 102820 100
2005-03-18 11:12 51°23.78 2°29.914 9.1 280 6.4 102820 100
2005-03-18 11:13 51°23.787 2°29.917 12.1 272 6.4 102810 100
2005-03-18 11:14 51°23.792 2°29.921 11.1 269 6.4 102810 100
2005-03-18 11:15 51°23.799 2°29.925 10.7 270 6.4 102810 100
2005-03-18 11:16 51°23.805 2°29.929 10.9 273 6.4 102800 100
2005-03-18 11:17 51°23.811 2°29.931 13 279 6.4 102800 100
2005-03-18 11:18 51°23.818 2°29.937 11.5 274 6.4 102800 100
2005-03-18 11:19 51°23.823 2°29.941 11.3 275 6.4 102800 100
2005-03-18 11:20 51°23.832 2°29.944 11.2 275 6.4 102790 100
2005-03-18 11:21 51°23.851 2°29.901 12.7 320 6.4 102790 100
2005-03-18 11:22 51°23.851 2°29.832 12.6 353 6.4 102790 100
2005-03-18 11:23 51°23.845 2°29.795 9.8 351 6.4 102800 100
2005-03-18 11:24 51°23.825 2°29.743 12 28 6.4 102790 100
2005-03-18 11:25 51°23.809 2°29.734 10.3 71 6.4 102780 100
2005-03-18 11:26 51°23.809 2°29.743 11.1 107 6.4 102800 100
2005-03-18 11:27 51°23.809 2°29.75 8.6 125 6.3 102830 100
2005-03-18 11:28 51°23.77 2°29.774 13.4 52 6.3 102810 100
2005-03-18 11:29 51°23.725 2°29.698 12.8 327 6.3 102800 100
2005-03-18 11:30 51°23.733 2°29.654 11.4 306 6.4 102810 100
2005-03-18 11:31 51°23.741 2°29.646 10.9 287 6.4 102840 100
2005-03-18 11:32 51°23.751 2°29.64 12.1 288 6.4 102820 100
2005-03-18 11:33 51°23.762 2°29.567 12.5 352 6.4 102830 100
2005-03-18 11:34 51°23.756 2°29.533 9.8 350 6.4 102820 100
2005-03-18 11:35 51°23.765 2°29.557 9.4 333 6.4 102830 100
2005-03-18 11:36 51°23.766 2°29.583 12.1 304 6.4 102820 100
2005-03-18 11:37 51°23.762 2°29.6 12.2 282 6.4 102830 100
2005-03-18 11:38 51°23.759 2°29.607 12.9 277 6.4 102820 100
2005-03-18 11:39 51°23.761 2°29.608 9.8 280 6.4 102820 100
2005-03-18 11:40 51°23.765 2°29.606 12.6 278 6.4 102820 100
2005-03-18 11:41 51°23.769 2°29.602 11.2 287 6.4 102820 100
2005-03-18 11:42 51°23.774 2°29.599 12.1 290 6.4 102810 100
2005-03-18 11:43 51°23.778 2°29.599 10.7 285 6.4 102800 100
2005-03-18 11:44 51°23.781 2°29.599 10.2 283 6.4 102800 100
2005-03-18 11:45 51°23.781 2°29.6 8.9 295 6.4 102810 100
2005-03-18 11:46 51°23.781 2°29.604 11.2 290 6.4 102810 100
2005-03-18 11:47 51°23.78 2°29.607 12.3 294 6.4 102820 100
2005-03-18 11:48 51°23.78 2°29.608 11.1 291 6.4 102810 100
2005-03-18 11:49 51°23.78 2°29.607 11.7 302 6.4 102810 100
2005-03-18 11:50 51°23.78 2°29.605 9.8 292 6.4 102830 100
2005-03-18 11:51 51°23.781 2°29.603 10.5 288 6.4 102820 100
2005-03-18 11:52 51°23.782 2°29.602 10.6 288 6.4 102810 100
2005-03-18 11:53 51°23.782 2°29.603 10.3 291 6.4 102810 100
2005-03-18 11:54 51°23.781 2°29.604 11.2 291 6.4 102820 100
2005-03-18 11:55 51°23.78 2°29.603 11.2 278 6.4 102820 100
2005-03-18 11:56 51°23.779 2°29.604 10.9 282 6.4 102810 100
2005-03-18 11:57 51°23.779 2°29.604 11.2 284 6.4 102800 100
2005-03-18 11:58 51°23.779 2°29.604 10.6 286 6.4 102810 100
2005-03-18 11:59 51°23.778 2°29.606 8.8 282 6.4 102810 100
2005-03-18 12:00 51°23.778 2°29.606 11 290 6.3 102820 100
2005-03-18 12:01 51°23.779 2°29.606 10.7 282 6.4 102810 100
2005-03-18 12:02 51°23.779 2°29.604 9.4 283 6.4 102810 100
2005-03-18 12:03 51°23.78 2°29.604 11.3 291 6.3 102810 100
2005-03-18 12:04 51°23.781 2°29.603 10.6 283 6.4 102810 100
2005-03-18 12:05 51°23.781 2°29.603 11.4 292 6.4 102810 100
2005-03-18 12:06 51°23.78 2°29.604 11.2 283 6.4 102810 100
2005-03-18 12:07 51°23.778 2°29.606 11.5 288 6.4 102820 100
2005-03-18 12:08 51°23.778 2°29.605 10.4 288 6.4 102820 100
2005-03-18 12:09 51°23.778 2°29.606 11.2 292 6.4 102810 100
2005-03-18 12:10 51°23.778 2°29.606 10.2 291 6.4 102810 100
2005-03-18 12:11 51°23.777 2°29.606 11.2 280 6.4 102800 100
2005-03-18 12:12 51°23.777 2°29.607 13.1 284 6.4 102800 100
2005-03-18 12:13 51°23.776 2°29.607 10.4 279 6.4 102810 100
2005-03-18 12:14 51°23.775 2°29.606 10.7 285 6.4 102790 100
2005-03-18 12:15 51°23.776 2°29.606 11.6 279 6.4 102800 100
2005-03-18 12:16 51°23.776 2°29.605 11.3 282 6.4 102800 100
2005-03-18 12:17 51°23.777 2°29.604 12.6 283 6.4 102790 100
2005-03-18 12:18 51°23.778 2°29.602 10 285 6.4 102790 100
2005-03-18 12:19 51°23.778 2°29.601 10.5 284 6.4 102790 100
2005-03-18 12:20 51°23.779 2°29.601 11.7 280 6.4 102790 100
2005-03-18 12:21 51°23.777 2°29.602 11 278 6.4 102800 100
2005-03-18 12:22 51°23.775 2°29.602 10.2 277 6.3 102800 100
2005-03-18 12:23 51°23.774 2°29.602 11.8 281 6.3 102800 100
2005-03-18 12:24 51°23.773 2°29.603 11.9 276 6.3 102790 100
2005-03-18 12:25 51°23.774 2°29.604 11.5 266 6.3 102800 100
2005-03-18 12:26 51°23.774 2°29.601 12.1 274 6.3 102790 100
2005-03-18 12:27 51°23.774 2°29.599 11.3 271 6.3 102790 100
2005-03-18 12:28 51°23.776 2°29.598 14.2 273 6.3 102780 100
2005-03-18 12:29 51°23.778 2°29.596 9.3 277 6.4 102780 100
2005-03-18 12:30 51°23.78 2°29.596 11.4 280 6.3 102770 100
2005-03-18 12:31 51°23.782 2°29.597 13.6 281 6.3 102760 100
2005-03-18 12:32 51°23.782 2°29.599 12.4 276 6.4 102780 100
2005-03-18 12:33 51°23.781 2°29.602 12.5 277 6.4 102780 100
2005-03-18 12:34 51°23.778 2°29.604 12.1 274 6.3 102770 100
2005-03-18 12:35 51°23.776 2°29.606 10.7 284 6.4 102770 100
2005-03-18 12:36 51°23.776 2°29.607 13.2 280 6.4 102770 100
2005-03-18 12:37 51°23.776 2°29.606 12.3 278 6.4 102770 100
2005-03-18 12:38 51°23.776 2°29.606 11.3 273 6.4 102760 100
2005-03-18 12:39 51°23.777 2°29.604 11.9 291 6.4 102760 100
2005-03-18 12:40 51°23.778 2°29.602 11.5 281 6.4 102760 100
2005-03-18 12:41 51°23.779 2°29.603 11.7 274 6.4 102770 100
2005-03-18 12:42 51°23.779 2°29.603 10.5 279 6.4 102770 100
2005-03-18 12:43 51°23.778 2°29.603 10.4 282 6.4 102760 100
2005-03-18 12:44 51°23.779 2°29.604 12.9 277 6.4 102760 100
2005-03-18 12:45 51°23.778 2°29.603 11.8 284 6.4 102770 100
2005-03-18 12:46 51°23.778 2°29.604 12.2 281 6.4 102760 100
2005-03-18 12:47 51°23.778 2°29.604 11.4 286 6.4 102760 100
2005-03-18 12:48 51°23.778 2°29.604 11.9 286 6.4 102770 100
2005-03-18 12:49 51°23.778 2°29.606 11.4 276 6.4 102760 100
2005-03-18 12:50 51°23.775 2°29.607 11.1 281 6.4 102770 100
2005-03-18 12:51 51°23.774 2°29.607 10.7 286 6.4 102760 100
2005-03-18 12:52 51°23.774 2°29.605 11.7 286 6.4 102770 100
2005-03-18 12:53 51°23.773 2°29.603 9.4 282 6.4 102770 100
2005-03-18 12:54 51°23.773 2°29.603 11.1 276 6.4 102780 100
2005-03-18 12:55 51°23.772 2°29.603 11.9 281 6.4 102770 100
2005-03-18 12:56 51°23.772 2°29.601 11.7 276 6.5 102780 100
2005-03-18 12:57 51°23.772 2°29.6 9.9 283 6.5 102780 100
2005-03-18 12:58 51°23.77 2°29.601 12.4 276 6.5 102780 100
2005-03-18 12:59 51°23.767 2°29.601 10.8 271 6.5 102780 100
2005-03-18 13:00 51°23.766 2°29.6 12.7 272 6.5 102780 100
2005-03-18 13:01 51°23.766 2°29.598 10.3 277 6.5 102780 100
2005-03-18 13:02 51°23.765 2°29.595 10.7 277 6.4 102790 100
2005-03-18 13:03 51°23.765 2°29.591 9.1 284 6.5 102780 100
2005-03-18 13:04 51°23.764 2°29.587 10.3 282 6.5 102790 100
2005-03-18 13:05 51°23.764 2°29.584 12.4 278 6.4 102780 100
2005-03-18 13:06 51°23.765 2°29.584 10.8 271 6.5 102790 100
2005-03-18 13:07 51°23.764 2°29.582 13.9 267 6.5 102780 100
2005-03-18 13:08 51°23.764 2°29.58 12.2 267 6.5 102780 100
2005-03-18 13:09 51°23.763 2°29.58 11.5 270 6.5 102780 100
2005-03-18 13:10 51°23.763 2°29.579 12.3 272 6.5 102790 100
2005-03-18 13:11 51°23.762 2°29.579 11.6 277 6.5 102790 100
2005-03-18 13:12 51°23.76 2°29.58 12.3 267 6.5 102780 100
2005-03-18 13:13 51°23.76 2°29.58 11.3 275 6.4 102780 100
2005-03-18 13:14 51°23.76 2°29.579 12.8 275 6.5 102790 100
2005-03-18 13:15 51°23.76 2°29.577 12.3 275 6.5 102780 100
2005-03-18 13:16 51°23.759 2°29.577 11.2 270 6.5 102780 100
2005-03-18 13:17 51°23.757 2°29.576 12.4 272 6.5 102780 100
2005-03-18 13:18 51°23.756 2°29.574 10.2 266 6.5 102780 100
2005-03-18 13:19 51°23.756 2°29.573 11.5 270 6.5 102780 100
2005-03-18 13:20 51°23.756 2°29.571 13.1 273 6.5 102790 100
2005-03-18 13:21 51°23.756 2°29.567 13 275 6.5 102770 100
2005-03-18 13:22 51°23.757 2°29.563 11.3 278 6.5 102770 100
2005-03-18 13:23 51°23.757 2°29.56 10.9 276 6.5 102770 100
2005-03-18 13:24 51°23.758 2°29.555 11.2 264 6.5 102760 100
2005-03-18 13:25 51°23.759 2°29.553 12.5 272 6.5 102770 100
2005-03-18 13:26 51°23.759 2°29.551 10.2 264 6.5 102750 100
2005-03-18 13:27 51°23.76 2°29.55 13 270 6.5 102760 100
2005-03-18 13:28 51°23.76 2°29.548 11.1 267 6.5 102760 100
2005-03-18 13:29 51°23.761 2°29.548 12.3 264 6.4 102760 100
2005-03-18 13:30 51°23.765 2°29.54 10.7 281 6.4 102760 100
2005-03-18 13:31 51°23.769 2°29.529 10.8 286 6.4 102760 100
2005-03-18 13:32 51°23.77 2°29.523 11.8 288 6.4 102740 100
2005-03-18 13:33 51°23.767 2°29.522 10.1 285 6.4 102740 100
2005-03-18 13:34 51°23.768 2°29.518 11.8 284 6.4 102740 100
2005-03-18 13:35 51°23.776 2°29.494 12.7 308 6.4 102730 100
2005-03-18 13:36 51°23.77 2°29.414 12.9 5 6.5 102730 100
2005-03-18 13:37 51°23.717 2°29.386 11.1 84 6.4 102740 100
2005-03-18 13:38 51°23.688 2°29.465 10.8 137 6.3 102770 100
2005-03-18 13:39 51°23.669 2°29.596 9.7 144 6.4 102730 100
2005-03-18 13:40 51°23.677 2°29.71 8.2 145 6.4 102760 100
2005-03-18 13:41 51°23.673 2°29.741 12.1 126 6.3 102730 100
2005-03-18 13:42 51°23.673 2°29.739 10.2 118 6.3 102740 100
2005-03-18 13:43 51°23.681 2°29.716 10.3 134 6.3 102760 100
2005-03-18 13:44 51°23.685 2°29.694 10.6 138 6.3 102740 100
2005-03-18 13:45 51°23.685 2°29.688 9.7 134 6.3 102740 100
2005-03-18 13:46 51°23.682 2°29.693 11 119 6.3 102750 100
2005-03-18 13:47 51°23.683 2°29.686 9.3 118 6.3 102750 100
2005-03-18 13:49 51°23.683 2°29.693 10.3 141 6.3 102740 100
2005-03-18 13:49 51°23.691 2°29.749 6.5 188 6.3 102760 100
2005-03-18 13:50 51°23.722 2°29.793 7.5 206 6.4 102770 100
2005-03-18 13:52 51°23.725 2°29.794 6.5 192 6.5 102760 100
2005-03-18 13:52 51°23.724 2°29.798 9.3 168 6.4 102750 100
2005-03-18 13:53 51°23.723 2°29.798 9.3 154 6.3 102750 100
2005-03-18 13:54 51°23.723 2°29.829 12 146 6.3 102740 100
2005-03-18 13:55 51°23.72 2°29.862 11.3 147 6.3 102740 100
2005-03-18 13:57 51°23.713 2°29.912 11.9 133 6.3 102740 100
2005-03-18 13:57 51°23.695 2°29.951 10.1 113 6.3 102740 100
2005-03-18 13:58 51°23.678 2°29.973 11.4 98 6.3 102730 100
2005-03-18 13:59 51°23.667 2°29.986 11.7 109 6.3 102730 100
2005-03-18 14:00 51°23.66 2°29.996 12.3 96 6.3 102740 100
2005-03-18 14:01 51°23.655 2°30.006 9.5 98 6.3 102720 100
2005-03-18 14:02 51°23.654 2°30.015 10.7 108 6.2 102730 100
2005-03-18 14:03 51°23.655 2°30.022 10.6 114 6.3 102730 100
2005-03-18 14:04 51°23.656 2°30.028 10.9 111 6.3 102740 100
2005-03-18 14:05 51°23.649 2°30.047 10.2 99 6.2 102710 100
2005-03-18 14:06 51°23.568 2°30.195 11.7 100 6.2 102700 100
2005-03-18 14:07 51°23.445 2°30.45 14 85 6.2 102670 100
2005-03-18 14:08 51°23.254 2°30.618 16 63 6.2 102650 100
2005-03-18 14:09 51°23.046 2°30.756 13.7 53 6.2 102640 100
2005-03-18 14:10 51°22.844 2°30.891 15.1 64 6.2 102620 100
2005-03-18 14:11 51°22.646 2°31.047 14.8 74 6.2 102630 100
2005-03-18 14:12 51°22.469 2°31.257 10.6 78 6.2 102640 100
2005-03-18 14:13 51°22.323 2°31.522 13 86 6.2 102650 100
2005-03-18 14:14 51°22.192 2°31.801 14.4 97 6.1 102660 100
2005-03-18 14:15 51°22.07 2°32.09 10.1 84 6.1 102660 100
2005-03-18 14:16 51°21.967 2°32.397 12.7 95 6.2 102670 100
2005-03-18 14:17 51°21.871 2°32.702 10.3 89 6.2 102670 100
2005-03-18 14:18 51°21.784 2°33.033 8.7 91 6.2 102670 100
2005-03-18 14:19 51°21.712 2°33.36 10 97 6.2 102670 100
2005-03-18 14:20 51°21.626 2°33.693 8.2 94 6.2 102670 100
2005-03-18 14:21 51°21.54 2°34.024 8.3 102 6.2 102670 100
2005-03-18 14:22 51°21.448 2°34.342 9.6 109 6.2 102670 100
2005-03-18 14:23 51°21.363 2°34.671 8.3 103 6.2 102680 100
2005-03-18 14:24 51°21.266 2°34.981 9.6 101 6.2 102670 100
2005-03-18 14:25 51°21.16 2°35.288 9.9 100 6.2 102660 100
2005-03-18 14:26 51°21.053 2°35.597 9.9 99 6.2 102660 100
2005-03-18 14:27 51°20.928 2°35.882 8.7 95 6.2 102650 100
2005-03-18 14:28 51°20.785 2°36.158 10.4 93 6.2 102650 100
2005-03-18 14:29 51°20.642 2°36.428 11 91 6.3 102650 100
2005-03-18 14:30 51°20.499 2°36.706 10.5 88 6.2 102640 100
2005-03-18 14:31 51°20.357 2°36.977 9.9 94 6.2 102650 100
2005-03-18 14:32 51°20.214 2°37.251 10.6 86 6.3 102650 100
2005-03-18 14:33 51°20.068 2°37.526 11.1 91 6.3 102650 100
2005-03-18 14:34 51°19.924 2°37.804 10.6 98 6.3 102650 100
2005-03-18 14:35 51°19.783 2°38.078 12.6 97 6.3 102650 100
2005-03-18 14:36 51°19.636 2°38.355 10.2 84 6.3 102660 100
2005-03-18 14:37 51°19.494 2°38.633 10.2 93 6.3 102660 100
2005-03-18 14:38 51°19.351 2°38.907 8.6 90 6.3 102660 100
2005-03-18 14:40 51°19.205 2°39.192 10.6 87 6.4 102660 100
2005-03-18 14:40 51°19.065 2°39.468 12 95 6.4 102660 100
2005-03-18 14:41 51°18.931 2°39.758 8 82 6.4 102660 100
2005-03-18 14:42 51°18.799 2°40.04 9.9 89 6.4 102660 100
2005-03-18 14:43 51°18.671 2°40.328 9.4 88 6.4 102660 100
2005-03-18 14:44 51°18.533 2°40.616 9.5 85 6.4 102660 100
2005-03-18 14:45 51°18.401 2°40.892 10.1 88 6.4 102660 100
2005-03-18 14:46 51°18.263 2°41.176 10.6 89 6.5 102660 100
2005-03-18 14:47 51°18.133 2°41.472 8.4 92 6.5 102660 100
2005-03-18 14:48 51°18.002 2°41.768 7.9 93 6.5 102660 100
2005-03-18 14:49 51°17.873 2°42.063 9.3 97 6.5 102660 100
2005-03-18 14:50 51°17.744 2°42.363 10.2 87 6.6 102660 100
2005-03-18 14:51 51°17.614 2°42.654 8.7 90 6.6 102660 100
2005-03-18 14:52 51°17.488 2°42.94 8 94 6.6 102660 100
2005-03-18 14:53 51°17.362 2°43.231 8.3 105 6.6 102660 100
2005-03-18 14:54 51°17.225 2°43.522 9.5 91 6.6 102660 100
2005-03-18 14:55 51°17.086 2°43.813 7.5 87 6.6 102660 100
2005-03-18 14:56 51°16.955 2°44.095 7.9 91 6.6 102650 100
2005-03-18 14:58 51°16.817 2°44.396 8.9 88 6.6 102650 100
2005-03-18 14:59 51°16.683 2°44.684 8.7 94 6.6 102650 100
2005-03-18 14:59 51°16.554 2°44.972 8.1 99 6.6 102660 100
2005-03-18 15:00 51°16.418 2°45.261 7.9 96 6.6 102650 100
2005-03-18 15:01 51°16.285 2°45.556 7.6 93 6.7 102660 100
2005-03-18 15:03 51°16.149 2°45.854 7.4 84 6.6 102660 100
2005-03-18 15:03 51°16.014 2°46.149 8.1 99 6.7 102660 100
2005-03-18 15:04 51°15.913 2°46.466 5 108 6.7 102660 100
2005-03-18 15:05 51°15.838 2°46.818 4.3 114 6.7 102670 100
2005-03-18 15:06 51°15.777 2°47.169 3 129 6.7 102670 100
2005-03-18 15:07 51°15.74 2°47.523 3.5 122 6.8 102670 100
2005-03-18 15:08 51°15.693 2°47.882 3.5 118 6.8 102670 100
2005-03-18 15:09 51°15.646 2°48.234 2.5 114 6.8 102670 100
2005-03-18 15:10 51°15.613 2°48.588 2.6 112 6.9 102670 100
2005-03-18 15:11 51°15.577 2°48.946 2.3 109 6.9 102670 100
2005-03-18 15:12 51°15.544 2°49.296 2.2 115 6.9 102670 100
2005-03-18 15:13 51°15.509 2°49.661 2.9 125 6.9 102670 100
2005-03-18 15:14 51°15.476 2°50.024 2.6 121 6.9 102660 100
2005-03-18 15:15 51°15.445 2°50.384 1.6 119 6.9 102660 100
2005-03-18 15:16 51°15.427 2°50.737 1.8 45 6.9 102660 100
2005-03-18 15:17 51°15.413 2°51.107 2.5 137 7 102660 100
2005-03-18 15:18 51°15.397 2°51.466 3.6 104 7 102660 100
2005-03-18 15:19 51°15.309 2°51.806 4.3 102 6.9 102660 100
2005-03-18 15:20 51°15.218 2°52.132 4.3 100 6.9 102660 100
2005-03-18 15:21 51°15.125 2°52.467 4.9 99 6.9 102650 100
2005-03-18 15:22 51°15.035 2°52.795 4.6 92 6.8 102650 100
2005-03-18 15:23 51°14.943 2°53.136 4.6 95 6.8 102650 100
2005-03-18 15:24 51°14.845 2°53.461 5.4 87 6.8 102650 100
2005-03-18 15:25 51°14.735 2°53.779 5.8 91 6.8 102650 100
2005-03-18 15:26 51°14.628 2°54.097 5.5 83 6.8 102650 100
2005-03-18 15:27 51°14.529 2°54.392 5.9 87 6.8 102650 100
2005-03-18 15:28 51°14.449 2°54.656 5.6 87 6.8 102680 100
2005-03-18 15:29 51°14.377 2°54.954 4.7 73 6.7 102670 100
2005-03-18 15:30 51°14.292 2°55.208 5.3 67 6.7 102690 100
2005-03-18 15:31 51°14.18 2°55.373 4.9 60 6.9 102710 100
2005-03-18 15:32 51°14.064 2°55.462 6.2 52 7.1 102680 100
2005-03-18 15:34 51°13.957 2°55.539 6.6 81 7.3 102690 100
2005-03-18 15:35 51°13.855 2°55.613 4.5 20 7.6 102700 100
2005-03-18 15:36 51°13.77 2°55.691 3 102 7.8 102710 100
2005-03-18 15:36 51°13.708 2°55.797 5 115 8.1 102700 100
2005-03-18 15:38 51°13.653 2°55.915 3.4 106 8.4 102710 99
2005-03-18 15:38 51°13.617 2°56.025 2 136 8.6 102710 98
2005-03-18 15:39 51°13.598 2°56.095 4.5 191 8.8 102710 97